Weather History for KAZO - June, 2012

Change the Weather History Date:

Tuesday, June 26, 2012

  Actual Average Record
Temperature  
Mean Temperature 67 °F 71 °F  
Max Temperature 83 °F 82 °F 97 °F (1988)
Min Temperature 50 °F 60 °F 50 °F (1955)
Degree Days  
Heating Degree Days 0 0  
Month to date heating degree days 47  
Since 1 June heating degree days 47  
Since 1 July heating degree days 6415  
Cooling Degree Days 2 7  
Month to date cooling degree days 117  
Year to date cooling degree days 158  
Since 1 June cooling degree days 117  
Growing Degree Days 16 (Base 50)    
Moisture  
Dew Point 47 °F    
Average Humidity 51    
Maximum Humidity 86    
Minimum Humidity 25    
Precipitation  
Precipitation 0.00 in 0.12 in 5.64 in (1978)
Month to date precipitation 0.81 3.22  
Year to date precipitation 15.66  
Sea Level Pressure  
Sea Level Pressure 30.04 in    
Wind  
Wind Speed 2 mph (NNW)    
Max Wind Speed 9 mph    
Max Gust Speed 20 mph    
Visibility 10 miles    
Events      
T = Trace of Precipitation, MM = Missing Value Source: NWS Daily Summary

Daily Weather History Graph

Daily Weather History Graph

Search for Another Location

Airport or City:

Trip Planner

Search our weather history database for the weather conditions in past years. The results will help you decide how hot, cold, wet, or windy it might be!

Date:

Astronomy

Jun. 26, 2012 Rise Set
Actual Time 6:07 AM EDT 9:22 PM EDT
Civil Twilight 5:32 AM EDT 9:57 PM EDT
Nautical Twilight 4:48 AM EDT 10:41 PM EDT
Astronomical Twilight 3:53 AM EDT 11:36 PM EDT
Moon 1:31 PM EDT 12:42 AM EDT
Length of Visible Light 16h 24m
Length of Day
15h 15m
Waxing Crescent, 45% of the Moon is Illuminated
Jun 26
Waxing Crescent
Jun 26
First Quarter
Jul 3
Full
Jul 10
Last Quarter
Jul 19
New

Hourly Weather History & Observations

Time (EDT) Temp. Dew Point Humidity Pressure Visibility Wind Dir Wind Speed Gust Speed Precip Events Conditions
12:53 AM 61.0 °F 48.9 °F 64% 30.05 in 10.0 mi Calm Calm - N/A   Clear
1:53 AM 57.9 °F 48.0 °F 70% 30.05 in 10.0 mi North 4.6 mph - N/A   Clear
2:53 AM 57.0 °F 48.0 °F 72% 30.05 in 10.0 mi Calm Calm - N/A   Clear
3:53 AM 55.0 °F 48.0 °F 77% 30.05 in 10.0 mi Calm Calm - N/A   Clear
4:53 AM 52.0 °F 48.0 °F 86% 30.06 in 10.0 mi Calm Calm - N/A   Clear
5:53 AM 52.0 °F 48.0 °F 86% 30.07 in 10.0 mi Calm Calm - N/A   Clear
6:53 AM 52.0 °F 48.0 °F 86% 30.09 in 10.0 mi Calm Calm - N/A   Clear
7:53 AM 59.0 °F 50.0 °F 72% 30.09 in 10.0 mi Calm Calm - N/A   Clear
8:53 AM 66.9 °F 50.0 °F 54% 30.10 in 10.0 mi Calm Calm - N/A   Clear
9:53 AM 69.1 °F 45.0 °F 42% 30.10 in 10.0 mi Variable 3.5 mph - N/A   Clear
10:53 AM 73.0 °F 45.0 °F 37% 30.10 in 10.0 mi Calm Calm - N/A   Clear
11:53 AM 75.0 °F 45.0 °F 34% 30.09 in 10.0 mi Calm Calm - N/A   Clear
12:53 PM 75.0 °F 42.1 °F 31% 30.08 in 10.0 mi Variable 3.5 mph - N/A   Clear
1:53 PM 77.0 °F 39.9 °F 26% 30.05 in 10.0 mi Variable 4.6 mph - N/A   Clear
2:53 PM 80.1 °F 42.1 °F 26% 30.03 in 10.0 mi Variable 4.6 mph - N/A   Clear
3:53 PM 80.1 °F 42.1 °F 26% 30.01 in 10.0 mi West 6.9 mph - N/A   Clear
4:53 PM 81.0 °F 42.1 °F 25% 29.99 in 10.0 mi SSE 5.8 mph - N/A   Clear
5:53 PM 81.0 °F 43.0 °F 26% 29.99 in 10.0 mi Calm Calm - N/A   Clear
6:53 PM 81.0 °F 45.0 °F 28% 29.98 in 10.0 mi SE 4.6 mph - N/A   Clear
7:53 PM 80.1 °F 45.0 °F 29% 29.96 in 10.0 mi Variable 4.6 mph - N/A   Clear
8:53 PM 73.9 °F 52.0 °F 46% 29.96 in 10.0 mi North 8.1 mph - N/A   Clear
9:53 PM 69.1 °F 51.1 °F 53% 29.97 in 10.0 mi NNW 3.5 mph - N/A   Clear
10:53 PM 68.0 °F 52.0 °F 56% 29.98 in 10.0 mi Calm Calm - N/A   Clear
11:53 PM 62.1 °F 52.0 °F 70% 29.98 in 10.0 mi Calm Calm - N/A   Clear